Showing default

QIANFAN-40, 62241

Orbit data source: Space-Track

QIANFAN-40, 62241 is a Chinese payload satellite in LEO that was launched on Thu, 05 Dec 2024 UTC via a CHANG ZHENG 6A launch vehicle from the Taiyaun Space Center, China (TSC). Payloads include a variety of satellites, spacecraft, and rockets equipped with specific instruments for various scientific and technological missions. These include communications satellites like Starlink; space stations such as the ISS; scientific satellites like the Hubble; Earth observation satellites from companies like Planet Labs, Umbra, and HawkEye 360; GPS; miniature CubeSats for education and research; and military/defense satellites.

Loading next visibility...
QIANFAN-40 details
Identifier
62241, 2024-232E
Orbit
LEO
Last TLE update17 hours ago
Origin
Flag of CNYUANX (CN / PRC)
ManufacturerSECM
MissionOperational Commercial Communications
Bus & MotorQIANFAN, Unknown motor
Mass300 kg wet, ~300 kg dry
Launch date (UTC)
2024-12-05 (2 months ago)
Launch vehicle
CHANG ZHENG 6A
Launch site
Taiyaun Space Center, China (TSC)
Object type
Payload
Rocket body
Debris
Shape & HBRBox + 1 Pan, 10 m
Radar Cross Section13.200 m², Large (>1 m²)

Expand to show TLE details & history

TLE from 17 hours ago
0 QIANFAN-40
1 62241U 24232E   25035.57428969  .00000545  00000-0  22305-3 0  9992
2 62241  88.9888  73.0605 0017013  27.2034 333.0047 14.25786218 57070
Epoch: 2025-02-04T13:46Z
Definitive object data (Epoch: 2025-02-04T13:46:58.629Z)
Latitude0.00001°
Longitude91.33859°
Altitude798.023 km
Speed7.46 km/s
True Right ascension04h 52m 14s
True Declination0° 00' 00"
Sunlit
Object was in daylight at TLE epoch
Visualization TLE readout
Latitude87.46276°
Longitude114.59699°
Altitude814.121 km
Speed7.456 km/s
Apparent Right ascension21h 14m 25s
Apparent Declination33° 35' 10"
Sunlit
Object is in daylight
Visualization observer readout
Local Sidereal Time09:04:21
Azimuth357.816° N
Elevation-16.461°
Doppler factor1
Orbital elements
Apogee altitude815.01 km
Perigee altitude790.577 km
Semi-major axis7,180.93 km
Eccentricity0.0017013
Inclination88.9888°
RAAN73.0605°
Arg. of periapsis27.2034°
True anomaly332.91604°
Mean anomaly333.0047°
Eccentric anomaly332.96039°
Mean motion3.56675 °/min
BSTAR0.00022305
Orbital period100.93 mins
Loading maneuver chart data...
Loading historical data...
Loading historical data...
Loading historical data...
Loading historical data...
Loading historical data...
Loading historical data...
Loading historical data...

QIANFAN-40 Visibility forecast

Observer location: undefined°, undefined

Span
Click to sort rows by Start time (UTC) header in descending order
Start Az.
Max El. time (UTC)
Max El. Az.
Max El.
End time (UTC)
End Az.
8 mins2025-02-05 13:57:05.585Z24.908° NE2025-02-05 14:01:05.585Z87.466° E29.771°2025-02-05 14:05:05.585Z145.876° SSE
7 mins2025-02-05 15:39:05.585Z322.327° NNW2025-02-05 15:42:05.585Z275.001° WNW23.956°2025-02-05 15:46:05.585Z226.045° WSW
8 mins2025-02-06 02:58:05.585Z190.484° SSW2025-02-06 03:01:05.585Z241.257° WSW42.659°2025-02-06 03:06:05.585Z353.24° N
|